TimeCDT,TemperatureF,Dew PointF,Humidity,Sea Level PressureIn,VisibilityMPH,Wind Direction,Wind SpeedMPH,Gust SpeedMPH,PrecipitationIn,Events,Conditions,WindDirDegrees,DateUTC
12:32 AM,35.6,30.2,81,29.81,5.0,East,4.6,-,N/A,,Overcast,80,2013-03-18 05:32:00
12:53 AM,35.1,32.0,89,29.82,3.0,East,3.5,-,N/A,,Overcast,80,2013-03-18 05:53:00
1:06 AM,33.8,32.0,93,29.79,2.5,ENE,4.6,-,N/A,,Overcast,70,2013-03-18 06:06:00
1:48 AM,33.8,32.0,93,29.78,4.0,East,5.8,-,N/A,,Overcast,100,2013-03-18 06:48:00
1:53 AM,34.0,32.0,92,29.80,4.0,East,3.5,-,N/A,,Overcast,100,2013-03-18 06:53:00
2:53 AM,34.0,32.0,92,29.81,4.0,NW,3.5,-,0.00,Rain,Light Rain,310,2013-03-18 07:53:00
3:53 AM,34.0,32.0,92,29.81,3.0,West,3.5,-,0.01,,Overcast,280,2013-03-18 08:53:00
4:04 AM,33.8,32.0,93,29.78,2.5,Calm,Calm,-,N/A,,Overcast,0,2013-03-18 09:04:00
4:33 AM,33.8,33.8,100,29.76,2.5,Calm,Calm,-,0.00,,Overcast,0,2013-03-18 09:33:00
4:44 AM,33.8,33.8,100,29.76,3.0,Calm,Calm,-,0.00,,Overcast,0,2013-03-18 09:44:00
4:53 AM,35.1,33.1,92,29.78,3.0,Calm,Calm,-,0.00,,Overcast,0,2013-03-18 09:53:00
5:31 AM,35.6,33.8,93,29.79,6.0,West,6.9,-,0.01,,Overcast,280,2013-03-18 10:31:00
5:53 AM,35.1,32.0,89,29.81,8.0,WNW,4.6,-,0.01,,Overcast,290,2013-03-18 10:53:00
6:53 AM,35.1,32.0,89,29.81,8.0,WNW,4.6,-,N/A,,Overcast,290,2013-03-18 11:53:00
7:05 AM,35.6,32.0,87,29.80,8.0,West,5.8,-,N/A,,Overcast,270,2013-03-18 12:05:00
7:45 AM,35.6,32.0,87,29.81,8.0,West,8.1,-,N/A,,Overcast,270,2013-03-18 12:45:00
7:53 AM,35.1,32.0,89,29.83,9.0,West,8.1,-,N/A,,Overcast,270,2013-03-18 12:53:00
8:53 AM,37.0,33.1,86,29.85,7.0,WNW,12.7,-,N/A,,Mostly Cloudy,290,2013-03-18 13:53:00
9:13 AM,39.2,33.8,81,29.84,9.0,NW,17.3,21.9,N/A,,Partly Cloudy,310,2013-03-18 14:13:00
9:53 AM,42.1,32.0,67,29.86,10.0,NW,19.6,27.6,N/A,,Clear,320,2013-03-18 14:53:00
10:53 AM,44.1,28.9,55,29.88,10.0,NW,18.4,25.3,N/A,,Partly Cloudy,310,2013-03-18 15:53:00
11:53 AM,46.9,27.0,46,29.89,10.0,NW,24.2,31.1,N/A,,Partly Cloudy,310,2013-03-18 16:53:00
12:53 PM,46.9,25.0,42,29.91,10.0,NW,21.9,32.2,N/A,,Clear,310,2013-03-18 17:53:00
1:53 PM,48.9,23.0,36,29.91,10.0,WNW,21.9,32.2,N/A,,Partly Cloudy,300,2013-03-18 18:53:00
2:53 PM,51.1,19.9,29,29.90,10.0,NW,29.9,43.7,N/A,,Scattered Clouds,310,2013-03-18 19:53:00
3:53 PM,50.0,21.0,32,29.91,10.0,NW,19.6,33.4,N/A,,Scattered Clouds,310,2013-03-18 20:53:00
4:53 PM,50.0,19.0,29,29.92,10.0,WNW,26.5,35.7,N/A,,Clear,300,2013-03-18 21:53:00
5:53 PM,46.9,18.0,32,29.95,10.0,NNW,24.2,32.2,N/A,,Clear,330,2013-03-18 22:53:00
6:53 PM,44.1,16.0,32,29.98,10.0,NNW,19.6,26.5,N/A,,Clear,340,2013-03-18 23:53:00
7:53 PM,39.0,15.1,38,30.02,10.0,NNW,12.7,-,N/A,,Clear,340,2013-03-19 00:53:00
8:53 PM,35.1,15.1,44,30.05,10.0,NNW,9.2,-,N/A,,Clear,340,2013-03-19 01:53:00
9:53 PM,30.9,14.0,50,30.06,10.0,NNW,6.9,-,N/A,,Clear,330,2013-03-19 02:53:00
11:53 PM,28.9,14.0,54,30.10,10.0,Calm,Calm,-,N/A,,Clear,0,2013-03-19 04:53:00